Time,TemperatureF,DewpointF,PressureIn,WindDirection,WindDirectionDegrees,WindSpeedMPH,WindSpeedGustMPH,Humidity,HourlyPrecipIn,Conditions,Clouds,dailyrainin,SoftwareType,DateUTC
2015-05-06 00:01:00,54.0,49.0,30.20,SE,130,6.0,18.0,82,-99.99,,,-99.99,,2015-05-06 05:01:00,
2015-05-06 00:11:00,53.0,49.0,30.20,SE,138,10.0,18.0,85,-99.99,,,-99.99,,2015-05-06 05:11:00,
2015-05-06 00:32:00,53.0,49.0,30.20,ESE,106,7.0,16.0,86,-99.99,,,-99.99,,2015-05-06 05:32:00,
2015-05-06 00:42:00,52.0,48.0,30.19,ESE,111,9.0,13.0,86,-99.99,,,-99.99,,2015-05-06 05:42:00,
2015-05-06 01:02:00,52.0,48.0,30.19,ESE,105,7.0,13.0,86,-99.99,,,-99.99,,2015-05-06 06:02:00,
2015-05-06 01:11:00,51.0,47.0,30.20,SE,125,6.0,13.0,87,-99.99,,,-99.99,,2015-05-06 06:11:00,
2015-05-06 01:32:00,51.0,48.0,30.19,ESE,114,4.0,12.0,89,-99.99,,,-99.99,,2015-05-06 06:32:00,
2015-05-06 01:42:00,51.0,48.0,30.19,ESE,110,3.0,8.0,89,-99.99,,,-99.99,,2015-05-06 06:42:00,
2015-05-06 02:01:00,51.0,48.0,30.18,SE,125,4.0,12.0,90,-99.99,,,-99.99,,2015-05-06 07:01:00,
2015-05-06 02:12:00,51.0,48.0,30.18,SE,128,3.0,10.0,90,-99.99,,,-99.99,,2015-05-06 07:12:00,
2015-05-06 02:31:00,51.0,48.0,30.18,ESE,105,4.0,11.0,91,-99.99,,,-99.99,,2015-05-06 07:31:00,
2015-05-06 02:41:00,51.0,48.0,30.18,ESE,107,2.0,7.0,91,-99.99,,,-99.99,,2015-05-06 07:41:00,
2015-05-06 03:01:00,51.0,49.0,30.17,East,99,4.0,9.0,92,-99.99,,,-99.99,,2015-05-06 08:01:00,
2015-05-06 03:11:00,51.0,49.0,30.16,ESE,106,2.0,8.0,92,-99.99,,,-99.99,,2015-05-06 08:11:00,
2015-05-06 03:31:00,52.0,50.0,30.16,ESE,109,2.0,10.0,92,-99.99,,,-99.99,,2015-05-06 08:31:00,
2015-05-06 03:41:00,52.0,50.0,30.16,ESE,122,4.0,10.0,93,-99.99,,,-99.99,,2015-05-06 08:41:00,
2015-05-06 04:01:00,52.0,50.0,30.16,ESE,103,4.0,10.0,93,-99.99,,,-99.99,,2015-05-06 09:01:00,
2015-05-06 04:11:00,52.0,50.0,30.16,East,95,4.0,9.0,93,-99.99,,,-99.99,,2015-05-06 09:11:00,
2015-05-06 04:31:00,52.0,50.0,30.16,ESE,104,2.0,9.0,93,-99.99,,,-99.99,,2015-05-06 09:31:00,
2015-05-06 04:42:00,52.0,50.0,30.15,ESE,116,7.0,10.0,94,-99.99,,,-99.99,,2015-05-06 09:42:00,
2015-05-06 05:02:00,52.0,50.0,30.15,ESE,107,5.0,10.0,94,-99.99,,,-99.99,,2015-05-06 10:02:00,
2015-05-06 05:11:00,52.0,50.0,30.15,ESE,111,6.0,11.0,94,-99.99,,,-99.99,,2015-05-06 10:11:00,
2015-05-06 05:31:00,52.0,50.0,30.14,ESE,115,5.0,9.0,94,-99.99,,,-99.99,,2015-05-06 10:31:00,
2015-05-06 05:42:00,52.0,50.0,30.14,SE,128,7.0,11.0,94,-99.99,,,-99.99,,2015-05-06 10:42:00,
2015-05-06 06:01:00,52.0,50.0,30.14,ESE,123,5.0,10.0,94,-99.99,,,-99.99,,2015-05-06 11:01:00,
2015-05-06 06:11:00,52.0,51.0,30.14,East,99,6.0,10.0,95,-99.99,,,-99.99,,2015-05-06 11:11:00,
2015-05-06 06:32:00,52.0,51.0,30.14,ESE,118,5.0,8.0,95,-99.99,,,-99.99,,2015-05-06 11:32:00,
2015-05-06 06:42:00,52.0,51.0,30.14,ESE,111,2.0,13.0,95,-99.99,,,-99.99,,2015-05-06 11:42:00,
2015-05-06 07:02:00,52.0,51.0,30.14,ESE,119,6.0,10.0,95,-99.99,,,-99.99,,2015-05-06 12:02:00,
2015-05-06 07:12:00,52.0,51.0,30.15,ESE,122,4.0,10.0,95,-99.99,,,-99.99,,2015-05-06 12:12:00,
2015-05-06 07:32:00,52.0,51.0,30.15,ESE,115,7.0,12.0,95,-99.99,,,-99.99,,2015-05-06 12:32:00,
2015-05-06 07:42:00,52.0,51.0,30.15,ESE,103,8.0,12.0,95,-99.99,,,-99.99,,2015-05-06 12:42:00,
2015-05-06 08:01:00,52.0,51.0,30.15,SE,125,6.0,14.0,95,-99.99,,,-99.99,,2015-05-06 13:01:00,
2015-05-06 08:11:00,53.0,52.0,30.15,SE,138,9.0,15.0,95,-99.99,,,-99.99,,2015-05-06 13:11:00,
2015-05-06 08:31:00,53.0,51.0,30.15,ESE,105,9.0,13.0,94,-99.99,,,-99.99,,2015-05-06 13:31:00,
2015-05-06 08:42:00,53.0,51.0,30.15,ESE,121,9.0,13.0,94,-99.99,,,-99.99,,2015-05-06 13:42:00,
2015-05-06 09:01:00,53.0,51.0,30.15,SE,143,9.0,15.0,94,-99.99,,,-99.99,,2015-05-06 14:01:00,
2015-05-06 09:11:00,53.0,51.0,30.15,SE,126,8.0,14.0,94,-99.99,,,-99.99,,2015-05-06 14:11:00,
2015-05-06 09:31:00,54.0,52.0,30.14,East,99,6.0,15.0,94,-99.99,,,-99.99,,2015-05-06 14:31:00,
2015-05-06 09:41:00,54.0,52.0,30.14,SE,134,8.0,13.0,94,-99.99,,,-99.99,,2015-05-06 14:41:00,
2015-05-06 10:01:00,55.0,53.0,30.14,SSE,154,5.0,13.0,93,-99.99,,,-99.99,,2015-05-06 15:01:00,
2015-05-06 10:11:00,55.0,53.0,30.13,ESE,117,7.0,12.0,93,-99.99,,,-99.99,,2015-05-06 15:11:00,
2015-05-06 10:32:00,55.0,53.0,30.13,SE,129,7.0,13.0,92,-99.99,,,-99.99,,2015-05-06 15:32:00,
2015-05-06 10:42:00,55.0,53.0,30.14,SE,137,7.0,14.0,92,-99.99,,,-99.99,,2015-05-06 15:42:00,
2015-05-06 11:02:00,56.0,54.0,30.14,SSE,151,7.0,13.0,92,-99.99,,,-99.99,,2015-05-06 16:02:00,
2015-05-06 11:12:00,57.0,54.0,30.13,SE,126,6.0,12.0,91,-99.99,,,-99.99,,2015-05-06 16:12:00,
2015-05-06 11:32:00,58.0,55.0,30.13,SE,138,8.0,13.0,89,-99.99,,,-99.99,,2015-05-06 16:32:00,
2015-05-06 11:42:00,59.0,55.0,30.13,SSE,153,5.0,14.0,88,-99.99,,,-99.99,,2015-05-06 16:42:00,
2015-05-06 12:02:00,59.0,55.0,30.12,ESE,111,6.0,12.0,87,-99.99,,,-99.99,,2015-05-06 17:02:00,
2015-05-06 12:12:00,59.0,56.0,30.11,East,90,3.0,12.0,89,-99.99,,,-99.99,,2015-05-06 17:12:00,
2015-05-06 12:32:00,58.0,56.0,30.11,ENE,78,5.0,8.0,92,-99.99,,,-99.99,,2015-05-06 17:32:00,
2015-05-06 12:42:00,58.0,56.0,30.10,East,88,3.0,7.0,93,-99.99,,,-99.99,,2015-05-06 17:42:00,
2015-05-06 13:02:00,60.0,58.0,30.10,ESE,120,5.0,9.0,94,-99.99,,,-99.99,,2015-05-06 18:02:00,
2015-05-06 13:12:00,62.0,59.0,30.09,East,94,12.0,17.0,91,-99.99,,,-99.99,,2015-05-06 18:12:00,
2015-05-06 13:32:00,64.0,61.0,30.09,SE,133,9.0,15.0,91,-99.99,,,-99.99,,2015-05-06 18:32:00,
2015-05-06 13:42:00,65.0,61.0,30.08,East,99,6.0,16.0,86,-99.99,,,-99.99,,2015-05-06 18:42:00,
2015-05-06 14:03:00,67.0,62.0,30.07,East,93,5.0,12.0,83,-99.99,,,-99.99,,2015-05-06 19:03:00,
2015-05-06 14:12:00,68.0,62.0,30.07,NE,53,7.0,11.0,82,-99.99,,,-99.99,,2015-05-06 19:12:00,
2015-05-06 14:32:00,69.0,62.0,30.06,ESE,122,10.0,16.0,79,-99.99,,,-99.99,,2015-05-06 19:32:00,
2015-05-06 14:42:00,71.0,63.0,30.05,ESE,122,10.0,14.0,76,-99.99,,,-99.99,,2015-05-06 19:42:00,
2015-05-06 15:02:00,72.0,63.0,30.04,ESE,103,8.0,15.0,74,-99.99,,,-99.99,,2015-05-06 20:02:00,
2015-05-06 15:11:00,73.0,65.0,30.04,ESE,109,8.0,16.0,75,-99.99,,,-99.99,,2015-05-06 20:11:00,
2015-05-06 15:32:00,73.0,63.0,30.03,ESE,111,8.0,19.0,71,-99.99,,,-99.99,,2015-05-06 20:32:00,
2015-05-06 15:42:00,74.0,63.0,30.03,SE,130,7.0,15.0,69,-99.99,,,-99.99,,2015-05-06 20:42:00,
2015-05-06 16:12:00,75.0,63.0,30.01,SE,124,10.0,20.0,66,-99.99,,,-99.99,,2015-05-06 21:12:00,
2015-05-06 16:34:00,76.0,63.0,30.01,ESE,123,10.0,21.0,64,-99.99,,,-99.99,,2015-05-06 21:34:00,
2015-05-06 16:42:00,75.0,61.0,30.00,ESE,122,16.0,24.0,61,-99.99,,,-99.99,,2015-05-06 21:42:00,
2015-05-06 17:11:00,75.0,61.0,29.98,SSE,147,14.0,20.0,62,-99.99,,,-99.99,,2015-05-06 22:11:00,
2015-05-06 17:31:00,75.0,61.0,29.98,ESE,118,16.0,23.0,61,-99.99,,,-99.99,,2015-05-06 22:31:00,
2015-05-06 17:41:00,75.0,61.0,29.97,ESE,109,14.0,25.0,61,-99.99,,,-99.99,,2015-05-06 22:41:00,
2015-05-06 18:02:00,76.0,59.0,29.97,SSE,151,19.0,29.0,55,-99.99,,,-99.99,,2015-05-06 23:02:00,
2015-05-06 18:11:00,74.0,57.0,29.96,SSE,151,14.0,28.0,56,-99.99,,,-99.99,,2015-05-06 23:11:00,
2015-05-06 18:32:00,74.0,59.0,29.97,SSE,153,10.0,26.0,59,-99.99,,,-99.99,,2015-05-06 23:32:00,
2015-05-06 18:42:00,74.0,59.0,29.97,SE,133,11.0,26.0,60,-99.99,,,-99.99,,2015-05-06 23:42:00,
2015-05-06 19:02:00,74.0,60.0,29.97,SSE,157,10.0,18.0,62,-99.99,,,-99.99,,2015-05-07 00:02:00,
2015-05-06 19:11:00,73.0,59.0,29.96,SE,141,12.0,22.0,61,-99.99,,,-99.99,,2015-05-07 00:11:00,
2015-05-06 19:42:00,73.0,60.0,29.96,SE,146,9.0,19.0,63,-99.99,,,-99.99,,2015-05-07 00:42:00,
2015-05-06 20:02:00,70.0,62.0,30.00,SSW,197,23.0,30.0,75,-99.99,,,-99.99,,2015-05-07 01:02:00,
2015-05-06 20:31:00,62.0,60.0,29.98,SSE,156,2.0,11.0,92,-99.99,,,-99.99,,2015-05-07 01:31:00,
2015-05-06 20:42:00,62.0,60.0,29.97,SE,142,3.0,7.0,92,-99.99,,,-99.99,,2015-05-07 01:42:00,
2015-05-06 21:02:00,62.0,60.0,29.97,SE,128,4.0,7.0,93,-99.99,,,-99.99,,2015-05-07 02:02:00,
2015-05-06 21:11:00,62.0,60.0,29.98,SE,138,8.0,12.0,93,-99.99,,,-99.99,,2015-05-07 02:11:00,
2015-05-06 21:31:00,62.0,60.0,29.98,SE,130,8.0,12.0,93,-99.99,,,-99.99,,2015-05-07 02:31:00,
2015-05-06 21:41:00,62.0,60.0,29.98,ESE,118,6.0,12.0,93,-99.99,,,-99.99,,2015-05-07 02:41:00,